Flushing, NY

10:14 AM EST on February 26, 2017 (GMT -0500)
La Guardia

Weather History for KLGA - November, 2011

Change the Weather History Date:

Sunday, November 13, 2011

  Actual Average Record
Temperature  
Mean Temperature 53 °F 49 °F  
Max Temperature 59 °F 56 °F 70 °F (1964)
Min Temperature 46 °F 43 °F 26 °F (1986)
Degree Days  
Heating Degree Days 12 16  
Month to date heating degree days 176 183  
Since 1 July heating degree days 418 455  
Cooling Degree Days 0 0  
Month to date cooling degree days 0 0  
Year to date cooling degree days 1375 1213  
Growing Degree Days 2 (Base 50)    
Moisture  
Dew Point 37 °F    
Average Humidity 56    
Maximum Humidity 71    
Minimum Humidity 40    
Precipitation  
Precipitation 0.00 in 0.10 in 1.60 in (1982)
Month to date precipitation 0.01 1.42  
Year to date precipitation 58.58 39.18  
Snow  
Snow 0.00 in 0.00 in - ()
Month to date snowfall 0.0 0.0  
Since 1 July snowfall 1.7 0.0  
Snow Depth 0.00 in    
Sea Level Pressure  
Sea Level Pressure 30.06 in    
Wind  
Wind Speed 9 mph (South)    
Max Wind Speed 16 mph    
Max Gust Speed 22 mph    
Visibility 10 miles    
Events      
T = Trace of Precipitation, MM = Missing Value Source: NWS Daily Summary

Daily Weather History Graph

Daily Weather History Graph

Search for Another Location

Airport or City:

Trip Planner

Search our weather history database for the weather conditions in past years. The results will help you decide how hot, cold, wet, or windy it might be!

Date:

Astronomy

Nov. 13, 2011 Rise Set
Actual Time 6:39 AM EST 4:39 PM EST
Civil Twilight 6:10 AM EST 5:08 PM EST
Nautical Twilight 5:37 AM EST 5:41 PM EST
Astronomical Twilight 5:05 AM EST 6:13 PM EST
Moon 6:45 PM EST (11/13) 9:10 AM EST (11/13)
Length of Visible Light 10h 58m
Length of Day
9h 59m
Waning Gibbous, 93% of the Moon is Illuminated
Nov 13
Waning Gibbous
Nov 18
Last Quarter
Nov 25
New
Dec 2
First Quarter
Dec 10
Full

Hourly Weather History & Observations

Time (EST) Temp. Windchill Dew Point Humidity Pressure Visibility Wind Dir Wind Speed Gust Speed Precip Events Conditions
12:51 AM 50.0 °F - 32.0 °F 50% 30.12 in 10.0 mi South 6.9 mph - N/A   Partly Cloudy
1:51 AM 50.0 °F - 33.1 °F 52% 30.13 in 10.0 mi SSW 6.9 mph - N/A   Partly Cloudy
2:51 AM 48.9 °F - 34.0 °F 56% 30.12 in 10.0 mi SSW 5.8 mph - N/A   Clear
3:51 AM 48.0 °F - 34.0 °F 58% 30.13 in 10.0 mi South 5.8 mph - N/A   Partly Cloudy
4:51 AM 46.9 °F - 36.0 °F 66% 30.14 in 10.0 mi South 5.8 mph - N/A   Scattered Clouds
5:51 AM 46.0 °F 43.1 °F 37.0 °F 71% 30.14 in 10.0 mi South 5.8 mph - N/A   Scattered Clouds
6:51 AM 46.9 °F - 37.0 °F 68% 30.14 in 10.0 mi SSW 3.5 mph - N/A   Scattered Clouds
7:51 AM 48.0 °F - 37.9 °F 68% 30.16 in 10.0 mi South 8.1 mph - N/A   Mostly Cloudy
8:51 AM 51.1 °F - 37.0 °F 59% 30.14 in 10.0 mi South 6.9 mph - N/A   Mostly Cloudy
9:51 AM 52.0 °F - 36.0 °F 54% 30.13 in 10.0 mi SSW 8.1 mph - N/A   Mostly Cloudy
10:51 AM 55.0 °F - 36.0 °F 49% 30.10 in 10.0 mi South 9.2 mph - N/A   Mostly Cloudy
11:51 AM 55.9 °F - 35.1 °F 45% 30.07 in 10.0 mi South 9.2 mph - N/A   Mostly Cloudy
12:51 PM 57.0 °F - 37.0 °F 47% 30.04 in 10.0 mi Variable 4.6 mph - N/A   Mostly Cloudy
1:51 PM 59.0 °F - 41.0 °F 51% 30.00 in 10.0 mi South 11.5 mph - N/A   Mostly Cloudy
2:51 PM 57.2 °F - 44.6 °F 63% 29.98 in 10.0 mi South 11.5 mph - N/A   Overcast
3:51 PM 57.2 °F - 42.8 °F 59% 29.98 in 10.0 mi South 10.4 mph - N/A   Overcast
4:51 PM 57.0 °F - 41.0 °F 55% 29.98 in 10.0 mi South 12.7 mph - N/A   Overcast
5:51 PM 57.0 °F - 41.0 °F 55% 29.98 in 10.0 mi South 11.5 mph - N/A   Overcast
6:51 PM 57.0 °F - 36.0 °F 45% 30.00 in 10.0 mi South 12.7 mph - N/A   Mostly Cloudy
7:51 PM 57.0 °F - 36.0 °F 45% 29.99 in 10.0 mi South 10.4 mph 18.4 mph N/A   Mostly Cloudy
8:51 PM 57.0 °F - 35.1 °F 44% 29.98 in 10.0 mi SSW 10.4 mph 19.6 mph N/A   Mostly Cloudy
9:51 PM 57.0 °F - 34.0 °F 42% 29.96 in 10.0 mi SSW 11.5 mph - N/A   Mostly Cloudy
10:51 PM 57.0 °F - 34.0 °F 42% 29.95 in 10.0 mi SSW 11.5 mph - N/A   Mostly Cloudy
11:51 PM 55.9 °F - 32.0 °F 40% 29.98 in 10.0 mi SSW 5.8 mph - N/A   Mostly Cloudy